This is the latest recevied weather packets stored in our database for station/object S56VIL-11. If no packets are shown the sender has not sent any weather packets the latest 10 day(s).
| Time | Temp. | Humidity | Pressure | Rain* | Wind** | Luminosity | Snow |
|---|---|---|---|---|---|---|---|
| 1777975038 | 12.22° C | 58% | 1027.4 hPa | - | - | - | - |
| 1777974977 | 12.22° C | 58% | 1027.4 hPa | - | - | - | - |
| 1777974077 | 13.33° C | 58% | 1027.3 hPa | - | - | - | - |
| 1777973177 | 15° C | 56% | 1027.3 hPa | - | - | - | - |
| 1777972277 | 15° C | 56% | 1027.3 hPa | - | - | - | - |
| 1777971377 | 13.89° C | 57% | 1027.2 hPa | - | - | - | - |
| 1777970477 | 13.89° C | 57% | 1027.1 hPa | - | - | - | - |
| 1777969577 | 13.33° C | 57% | 1027.1 hPa | - | - | - | - |
| 1777968677 | 13.89° C | 55% | 1026.9 hPa | - | - | - | - |
| 1777967777 | 14.44° C | 56% | 1026.8 hPa | - | - | - | - |
| 1777966877 | 13.89° C | 56% | 1026.9 hPa | - | - | - | - |
| 1777965977 | 13.33° C | 56% | 1026.8 hPa | - | - | - | - |
| 1777965077 | 13.89° C | 56% | 1026.7 hPa | - | - | - | - |
| 1777964177 | 13.89° C | 56% | 1026.7 hPa | - | - | - | - |
| 1777963277 | 13.89° C | 55% | 1026.6 hPa | - | - | - | - |
| 1777962377 | 13.33° C | 56% | 1026.6 hPa | - | - | - | - |
| 1777961477 | 12.78° C | 56% | 1026.6 hPa | - | - | - | - |
| 1777960576 | 12.22° C | 55% | 1026.5 hPa | - | - | - | - |
| 1777959676 | 12.78° C | 56% | 1026.5 hPa | - | - | - | - |
| 1777958776 | 12.78° C | 56% | 1026.3 hPa | - | - | - | - |
| 1777957876 | 13.33° C | 55% | 1026.4 hPa | - | - | - | - |
| 1777956976 | 13.33° C | 55% | 1026.2 hPa | - | - | - | - |
| 1777956076 | 13.33° C | 55% | 1026.2 hPa | - | - | - | - |
| 1777955176 | 11.11° C | 55% | 1026.2 hPa | - | - | - | - |
| 1777954276 | 11.11° C | 55% | 1026.2 hPa | - | - | - | - |
* Rain since midnight (hover to see other rain measurements)
** Current wind speed in m/s (hover to see current wind gust speed)